International Falls, MN

4:31 PM CST on February 12, 2016 (GMT -0600)
Falls International

Weather History for KINL - November, 2013

Change the Weather History Date:

Friday, November 1, 2013

  Actual Average Record
Temperature  
Mean Temperature 38 °F 34 °F  
Max Temperature 42 °F 43 °F 65 °F (1990)
Min Temperature 34 °F 25 °F 2 °F (1951)
Degree Days  
Heating Degree Days 27 31  
Month to date heating degree days 27 31  
Since 1 July heating degree days 1195 1308  
Cooling Degree Days 0 0  
Month to date cooling degree days 0 0  
Year to date cooling degree days 224 192  
Moisture  
Dew Point 33 °F    
Average Humidity 77    
Maximum Humidity 92    
Minimum Humidity 62    
Precipitation  
Precipitation T in 0.05 in 0.91 in (2000)
Month to date precipitation T 0.05  
Year to date precipitation 29.19 22.08  
Snow  
Snow 0.00 in 0.20 in 11.60 in (1991)
Month to date snowfall 0.2  
Since 1 July snowfall 1.6 2.5  
Since 1 September snowfall 1.6 2.5  
Snow Depth 0.00 in    
Sea Level Pressure  
Sea Level Pressure 29.57 in    
Wind  
Wind Speed 7 mph (NW)    
Max Wind Speed 15 mph    
Max Gust Speed 18 mph    
Visibility 10 miles    
Events Rain    
T = Trace of Precipitation, MM = Missing Value Source: NWS Daily Summary

Daily Weather History Graph

Daily Weather History Graph

Search for Another Location

Airport or City:

Trip Planner

Search our weather history database for the weather conditions in past years. The results will help you decide how hot, cold, wet, or windy it might be!

Date:

Astronomy

Nov. 01, 2013 Rise Set
Actual Time 8:00 AM CDT 5:53 PM CDT
Civil Twilight 7:27 AM CDT 6:26 PM CDT
Nautical Twilight 6:50 AM CDT 7:03 PM CDT
Astronomical Twilight 6:13 AM CDT 7:39 PM CDT
Moon 5:44 AM CDT (11/1) 4:53 PM CDT (11/1)
Length of Visible Light 10h 58m
Length of Day
9h 53m
Waning Crescent, 4% of the Moon is Illuminated
Nov 1
Waning Crescent
Nov 3
New
Nov 9
First Quarter
Nov 17
Full
Nov 25
Last Quarter

Hourly Weather History & Observations

Time (CDT) Temp. Windchill Dew Point Humidity Pressure Visibility Wind Dir Wind Speed Gust Speed Precip Events Conditions
12:25 AM 37.4 °F - 35.6 °F 93% 29.38 in 9.0 mi Calm Calm - N/A   Overcast
12:45 AM 37.4 °F - 35.6 °F 93% 29.37 in 8.0 mi Calm Calm - N/A   Overcast
12:55 AM 37.9 °F - 35.1 °F 89% 29.41 in 8.0 mi Calm Calm - N/A   Overcast
1:55 AM 37.0 °F 34.5 °F 35.1 °F 93% 29.42 in 9.0 mi West 3.5 mph - N/A   Overcast
2:21 AM 37.4 °F 34.9 °F 35.6 °F 93% 29.38 in 9.0 mi WNW 3.5 mph - N/A   Overcast
2:53 AM 37.4 °F 34.9 °F 33.8 °F 87% 29.38 in 9.0 mi WNW 3.5 mph - N/A   Overcast
2:55 AM 37.0 °F 34.5 °F 35.1 °F 93% 29.42 in 9.0 mi WNW 3.5 mph - N/A   Overcast
3:27 AM 37.4 °F 33.8 °F 35.6 °F 93% 29.39 in 9.0 mi NW 4.6 mph - N/A   Overcast
3:55 AM 37.9 °F 33.5 °F 35.1 °F 89% 29.43 in 9.0 mi NW 5.8 mph - N/A   Overcast
4:15 AM 37.4 °F 32.8 °F 35.6 °F 93% 29.40 in 9.0 mi NW 5.8 mph - N/A   Overcast
4:40 AM 37.4 °F 32.1 °F 35.6 °F 93% 29.41 in 9.0 mi NW 6.9 mph - N/A   Overcast
4:50 AM 37.4 °F 32.1 °F 35.6 °F 93% 29.41 in 9.0 mi NW 6.9 mph - N/A   Overcast
4:55 AM 37.0 °F 32.4 °F 35.1 °F 93% 29.45 in 10.0 mi NW 5.8 mph - N/A   Overcast
5:22 AM 37.4 °F 32.1 °F 33.8 °F 87% 29.42 in 10.0 mi NNW 6.9 mph - N/A   Overcast
5:55 AM 37.9 °F 30.9 °F 33.1 °F 83% 29.47 in 10.0 mi NNW 10.4 mph - N/A   Overcast
6:55 AM 37.0 °F 31.0 °F 33.1 °F 86% 29.50 in 10.0 mi NNW 8.1 mph - N/A   Overcast
7:55 AM 37.0 °F 33.3 °F 32.0 °F 82% 29.52 in 10.0 mi NNW 4.6 mph - N/A   Overcast
8:55 AM 37.9 °F 32.1 °F 30.9 °F 76% 29.55 in 10.0 mi North 8.1 mph - N/A   Overcast
9:55 AM 37.9 °F 32.1 °F 30.9 °F 76% 29.56 in 10.0 mi NNW 8.1 mph - N/A   Overcast
10:55 AM 37.9 °F 32.1 °F 30.9 °F 76% 29.58 in 10.0 mi NNW 8.1 mph - N/A   Overcast
11:55 AM 39.0 °F 32.8 °F 30.9 °F 73% 29.61 in 10.0 mi North 9.2 mph - N/A   Overcast
12:55 PM 39.9 °F 33.9 °F 30.0 °F 68% 29.63 in 10.0 mi North 9.2 mph - N/A   Overcast
1:21 PM 39.2 °F 35.0 °F 30.2 °F 70% 29.60 in 10.0 mi North 5.8 mph - N/A   Overcast
1:55 PM 41.0 °F 38.0 °F 30.9 °F 67% 29.65 in 10.0 mi NNW 4.6 mph - N/A   Overcast
2:55 PM 42.1 °F 39.2 °F 30.9 °F 65% 29.66 in 10.0 mi NNW 4.6 mph - N/A   Overcast
3:55 PM 42.1 °F 36.6 °F 30.0 °F 62% 29.68 in 10.0 mi NNW 9.2 mph - N/A   Overcast
4:55 PM 41.0 °F 39.0 °F 32.0 °F 70% 29.71 in 10.0 mi NW 3.5 mph - 0.00 in   Overcast
5:25 PM 41.0 °F - 33.8 °F 76% 29.68 in 10.0 mi Calm Calm - N/A   Overcast
5:55 PM 39.0 °F 34.0 °F 34.0 °F 82% 29.73 in 8.0 mi NNW 6.9 mph - 0.00 in Rain Light Rain
6:55 PM 39.0 °F 31.8 °F 33.1 °F 79% 29.76 in 10.0 mi NNW 11.5 mph - 0.00 in   Overcast
7:55 PM 37.0 °F 30.4 °F 30.9 °F 79% 29.80 in 10.0 mi NW 9.2 mph - N/A   Overcast
8:55 PM 36.0 °F 29.6 °F 28.0 °F 73% 29.82 in 10.0 mi NW 8.1 mph - N/A   Overcast
9:55 PM 36.0 °F 32.1 °F 28.0 °F 73% 29.83 in 10.0 mi NW 4.6 mph - N/A   Overcast
10:55 PM 35.1 °F 28.6 °F 30.0 °F 82% 29.86 in 9.0 mi NNW 8.1 mph - N/A   Overcast
11:55 PM 35.1 °F 31.0 °F 30.9 °F 85% 29.87 in 10.0 mi NW 4.6 mph - 0.00 in   Overcast